Back to Previous

Regional Weather Roundup

000
ASUS44 KLZK 230905
RWRLZK

WEATHER ROUNDUP FOR ARKANSAS
NATIONAL WEATHER SERVICE LITTLE ROCK AR
400 AM CDT WED APR 23 2014

NOTE: "FAIR" INDICATES FEW OR NO CLOUDS BELOW 12,000 FEET WITH NO
SIGNIFICANT WEATHER AND/OR OBSTRUCTIONS TO VISIBILITY.

ARZ001-003-010-029-231000-
NORTHWEST ARKANSAS
  
CITY           SKY/WX    TMP DP  RH WIND       PRES   REMARKS
FAYETTEVILLE   CLEAR     42  41  96 CALM      29.99S                  
FORT SMITH     CLEAR     52  45  77 E5        29.96S                  
HARRISON       CLEAR     51  37  58 SE3       30.01R                  
BENTONVILLE    CLEAR     50  37  62 SE6       29.99S                  
ROGERS         CLEAR     50  43  77 E9        29.99S                  
SILOAM SPGS    CLEAR     52  36  54 E5        29.98S                  
HIGHFILL       CLEAR     50  40  68 CALM      29.97F                  
$$

ARZ004-005-016-231000-
NORTH CENTRAL ARKANSAS
  
CITY           SKY/WX    TMP DP  RH WIND       PRES   REMARKS
BATESVILLE     CLEAR     48  43  81 S3        30.01R                  
FLIPPIN        CLEAR     45  36  70 CALM      30.02R                  
MTN HOME       CLEAR     51  34  52 E5        30.00S                  
$$

ARZ040-041-231000-
WEST CENTRAL ARKANSAS
  
CITY           SKY/WX    TMP DP  RH WIND       PRES   REMARKS
MENA           CLEAR     46 N/A N/A CALM      29.98S                  
MOUNT IDA      CLEAR     47  46  97 CALM      29.95S                  
$$

ARZ009-017-025-026-028-231000-
NORTHEAST ARKANSAS
  
CITY           SKY/WX    TMP DP  RH WIND       PRES   REMARKS
CORNING        FAIR      50  41  71 N5        30.03R                  
JONESBORO      CLEAR     52  41  66 NE3       30.01R                  
NEWPORT        CLEAR     50  45  83 N12       30.03R                  
WALNUT RIDGE   CLEAR     50  41  71 N6        30.01S                  
BLYTHEVILLE    CLEAR     49  44  83 NW7       30.01R                  
$$

ARZ022-023-033-042-044-231000-
CENTRAL ARKANSAS
  
CITY           SKY/WX    TMP DP  RH WIND       PRES   REMARKS
LITTLE ROCK    CLEAR     52  48  86 CALM      29.98R                  
N LITTLE ROCK    N/A     59  43  55 NE8       29.98R                  
JACKSONVILLE   CLEAR     47  46  94 CALM      29.99R                  
SEARCY         CLEAR     49  44  83 CALM      30.01R                  
HOT SPRINGS    CLEAR     51  48  89 CALM      29.97S                  
RUSSELLVILLE   CLEAR     47  44  90 CALM      29.98R                  
CLINTON        FAIR      45  43  93 CALM      30.02R                  
$$

ARZ036-231000-
EAST ARKANSAS
  
CITY           SKY/WX    TMP DP  RH WIND       PRES   REMARKS
WEST MEMPHIS   CLEAR     50  44  80 N3        29.99R                  
$$

ARZ050-053-066-070-073-231000-
SOUTHWEST ARKANSAS
  
CITY           SKY/WX    TMP DP  RH WIND       PRES   REMARKS
ARKADELPHIA    FAIR      55  55 100 CALM      29.97S                  
CAMDEN         CLEAR     54  50  87 MISG      29.96S FOG              
TEXARKANA      CLEAR     57  54  89 SE3       29.94S                  
EL DORADO      CLEAR     55  54  96 CALM      29.95S                  
DE QUEEN       CLEAR     51  50  96 E3        29.93S                  
$$

ARZ056-057-069-231000-
SOUTHEAST ARKANSAS
  
CITY           SKY/WX    TMP DP  RH WIND       PRES   REMARKS
PINE BLUFF     CLEAR     53  50  89 CALM      29.96S                  
STUTTGART      CLEAR     54  48  82 NE9       29.98S                  
MONTICELLO     CLEAR     51  49  92 CALM      29.96R                  

$$




USA.gov is the U.S. government's official web portal to all federal, state and local government web resources and services.